Terminal Aerodrome Forecast
Issued by NWS

Home | Current Version | Previous Version | Text Only | Print | Product List | Glossary On
Versions: 1 2 3 4 5 6 7 8 9 10 11 12 13 14 15 16 17 18 19
157
FTUS44 KLIX 290521
TAFMSY
TAF
KMSY 290521Z 2906/3006 16007KT P6SM FEW060 SCT250
     FM290830 15006KT P6SM BKN015
     FM291600 16011KT P6SM BKN030
     FM292300 16012KT P6SM SCT250
     FM300200 15008KT P6SM SCT250=

USA.gov is the U.S. government's official web portal to all federal, state and local government web resources and services.